Temp
71 69 67 70 71 70 69 70 69 68 67 68 70 70 70 70 71 68 68 71 69 68 69 67 65 62 56 58 56 59 56 62 55 53 56 63 62 65 63 69 70 69 69
69 67 60 65 68 68 62 69 71 69 69 66 69 70 71 71 70 68 68 71 69 69 69 69 68 67 64 58 57 56 56 60 55 54 55 59 64 64 62 62 65 68 74
70 66 62 60 61 65 64 69 70 71 71 69 69 70 71 71 69 70 70 71 71 71 70 69 69 69 66 65 61 59 60 62 57 56 53 60 61 67 67 68 72 73 76
69 68 61 59 61 62 66 65 69 71 71 68 70 71 73 72 67 71 72 71 71 72 72 71 70 69 67 67 66 63 63 65 64 55 59 63 70 70 73 70 69 74 74
64 65 59 57 62 64 66 65 70 72 72 72 71 69 72 72 73 71 69 68 70 69 72 73 70 65 60 61 67 69 70 66 57 55 63 66 70 70 69 71 68 71 72
59 60 63 58 59 65 66 67 69 70 72 71 71 70 70 73 55 56 59 71 66 70 69 71 73 68 63 57 58 57 60 68 70 67 68 68 66 67 73 72 71 69 60
63 57 60 60 59 63 66 68 69 67 69 69 70 70 67 70 55 53 55 60 66 70 68 70 69 74 70 73 58 57 57 56 59 69 67 67 66 69 69 67 70 72 72
65 58 57 59 58 61 64 65 67 69 68 68 69 70 69 69 53 51 52 67 69 66 69 70 66 69 67 70 72 70 71 71 70 74 71 69 70 71 72 72 70 70 72
65 66 58 58 57 62 62 65 66 68 68 66 68 69 69 68 51 50 55 70 67 68 72 72 67 71 53 53 71 71 70 70 58 56 54 52 53 55 60 74 71 71 70
65 65 63 59 58 57 58 62 65 67 68 72 70 69 66 69 52 49 55 72 69 70 72 72 57 63 51 51 69 71 69 70 72 70 68 59 57 62 52 66 74 71 74
67 66 66 63 56 56 57 57 60 62 66 67 69 69 70 69 67 48 48 70 73 73 73 72 73 50 48 48 50 70 64 66 61 69 71 72 72 71 73 71 72 73 72
64 64 65 65 65 64 59 57 57 58 62 64 65 66 71 71 55 49 47 47 59 71 71 75 65 47 47 47 53 51 49 53 73 73 73 72 73 74 75 75 72 72 75
61 61 62 64 66 63 60 60 60 57 60 60 65 68 67 66 74 50 47 46 46 64 74 58 48 46 46 48 46 48 44 70 72 71 71 73 75 76 73 71 71 71 70
59 57 59 60 62 66 62 60 61 58 55 58 63 64 67 70 67 73 71 65 48 57 58 67 62 58 55 55 62 58 69 72 71 71 72 75 76 74 72 74 73 73 71
59 60 57 58 60 63 65 61 61 54 51 51 56 59 63 63 70 54 58 73 75 68 67 72 69 70 70 71 72 73 74 73 71 72 72 73 74 74 74 75 73 73 71
54 58 57 57 59 61 63 62 46 45 45 44 42 45 63 52 47 46 46 46 46 48 67 71 71 72 72 73 73 73 74 68 73 73 73 73 73 73 73 74 74 72 71
54 55 56 55 59 58 60 61 58 54 47 45 44 43 41 43 42 42 43 43 42 45 68 70 72 73 73 73 74 73 73 74 73 73 74 73 73 74 71 72 73 73 71
52 48 57 56 54 57 59 60 59 58 56 56 47 45 44 41 41 42 42 41 62 56 70 70 69 71 74 74 74 74 74 73 73 72 73 73 73 73 73 72 72 71 71
55 56 56 55 52 55 55 55 55 55 59 58 57 48 47 43 41 42 40 66 68 65 70 73 67 74 67 75 74 74 71 72 72 72 72 73 73 73 73 73 73 52 57
57 46 50 53 54 55 55 54 54 56 58 58 58 54 49 48 58 57 59 68 69 69 73 67 70 73 74 76 75 73 72 71 71 71 71 73 73 73 73 73 73 71 70
55 55 45 52 52 51 50 49 49 53 53 54 55 56 35 45 50 52 57 59 67 63 67 72 75 72 77 76 76 75 74 74 74 74 74 74 74 73 74 74 73 73 72
58 57 54 52 51 50 50 50 50 50 50 50 52 57 40 60 61 57 53 55 59 66 67 72 74 75 76 75 75 76 75 75 75 75 75 75 75 75 74 74 73 72 72
55 55 55 54 53 48 51 52 51 52 51 50 52 53 57 57 59 62 61 60 62 64 60 69 74 70 74 74 78 78 77 75 76 75 75 76 75 75 74 73 73 72 71
61 57 54 55 54 54 54 50 50 44 49 51 53 53 53 53 55 55 58 61 63 64 62 66 68 72 71 74 76 78 78 78 78 76 76 74 75 71 74 74 74 73 72
59 58 58 56 55 54 53 54 50 49 47 48 47 47 48 48 48 49 50 53 55 58 60 67 65 66 68 71 73 75 57 46 64 47 75 76 73 74 75 74 74 73 72
58 60 58 59 58 57 55 58 56 56 50 46 44 45 45 44 47 47 48 49 51 51 53 59 57 58 64 65 62 43 38 38 53 38 65 73 74 73 74 72 71 71 71
MSLP
1019.68 1019.97 1020.04 1019.95 1019.77 1019.77 1019.67 1019.48 1019.54 1019.34 1019.37 1019.26 1018.92 1018.66 1018.51 1018.24 1018.01 1018.12 1017.63 1016.87 1016.56 1016.55 1016.21 1015.92 1015.76 1016.02 1016.09 1015.97 1015.72 1015.82 1015.96 1015.58 1015.89 1016.64 1016.50 1015.67 1015.48 1015.81 1016.50 1016.81 1017.52 1018.21 1019.21
1019.55 1019.93 1019.94 1019.93 1019.71 1019.54 1019.38 1019.20 1019.12 1018.88 1018.72 1018.97 1018.67 1018.45 1018.22 1017.87 1017.94 1017.88 1017.37 1016.82 1016.55 1016.17 1015.96 1015.69 1015.42 1015.61 1015.91 1016.32 1016.25 1016.35 1016.43 1016.11 1016.28 1016.66 1016.79 1016.06 1015.45 1016.43 1017.15 1017.53 1017.83 1018.33 1018.66
1019.20 1019.33 1019.51 1019.54 1019.40 1019.28 1019.15 1018.73 1018.74 1018.32 1018.22 1018.23 1018.23 1018.01 1017.70 1017.79 1017.95 1017.65 1017.20 1016.92 1016.56 1016.29 1016.08 1015.79 1015.55 1015.45 1015.51 1015.74 1016.28 1016.45 1016.54 1016.48 1016.88 1017.13 1017.36 1016.59 1016.32 1016.78 1017.24 1017.61 1017.58 1017.71 1018.22
1018.70 1018.65 1019.10 1019.39 1018.65 1019.02 1018.70 1018.38 1018.16 1017.92 1017.72 1017.93 1017.63 1017.50 1017.45 1017.57 1017.93 1017.35 1016.95 1016.82 1016.62 1016.26 1016.20 1015.92 1015.83 1015.87 1015.79 1015.80 1015.97 1016.20 1016.43 1016.43 1016.74 1017.26 1017.04 1016.56 1016.21 1016.79 1016.82 1017.18 1017.55 1017.77 1017.89
1018.88 1018.58 1018.91 1019.04 1018.62 1018.34 1018.01 1017.89 1017.58 1017.12 1017.17 1017.27 1017.15 1017.44 1017.17 1017.36 1017.34 1017.31 1017.42 1017.36 1016.77 1016.36 1016.21 1015.96 1016.39 1016.66 1016.67 1016.57 1016.13 1015.79 1015.45 1015.87 1016.91 1017.00 1016.41 1016.15 1016.18 1016.26 1016.28 1016.68 1016.97 1017.17 1017.93
1019.09 1018.59 1018.21 1018.71 1018.21 1017.83 1017.50 1017.23 1016.95 1016.90 1016.64 1016.83 1016.72 1016.87 1016.88 1016.83 1017.41 1017.84 1017.81 1017.08 1017.37 1016.67 1016.63 1016.45 1016.27 1016.45 1016.76 1016.85 1016.87 1016.73 1016.58 1016.09 1015.42 1015.57 1015.58 1015.79 1016.35 1016.56 1016.39 1016.63 1017.00 1017.03 1017.58
1018.55 1018.64 1018.08 1017.93 1017.81 1017.52 1017.11 1016.67 1016.29 1016.70 1016.33 1016.41 1016.32 1016.47 1016.91 1016.83 1017.44 1017.84 1017.93 1017.78 1017.31 1016.89 1016.86 1016.54 1016.20 1016.51 1016.55 1016.47 1017.09 1017.09 1017.12 1017.07 1016.86 1016.28 1016.08 1016.34 1016.75 1016.77 1016.83 1017.04 1016.91 1016.94 1016.81
1018.16 1018.14 1017.98 1017.39 1017.35 1017.34 1016.94 1016.47 1016.01 1015.99 1015.89 1015.92 1015.91 1016.03 1016.49 1016.71 1017.23 1017.68 1017.84 1017.52 1017.16 1017.05 1016.84 1016.80 1016.97 1016.86 1017.12 1016.83 1016.57 1016.67 1016.72 1017.01 1017.16 1016.71 1016.95 1017.12 1017.01 1017.04 1017.09 1017.22 1017.46 1017.58 1017.72
1017.81 1017.34 1017.56 1017.36 1017.21 1016.93 1016.62 1016.11 1015.71 1015.51 1015.62 1015.92 1015.87 1015.76 1015.98 1016.48 1017.09 1017.42 1017.64 1016.89 1016.85 1016.71 1016.52 1016.67 1017.08 1017.00 1017.46 1017.43 1016.83 1016.70 1016.73 1017.06 1017.81 1018.03 1018.14 1018.24 1018.22 1018.19 1018.03 1017.28 1017.11 1016.98 1016.63
1017.76 1017.29 1017.21 1017.23 1017.00 1016.86 1016.78 1016.29 1015.80 1015.45 1015.24 1014.96 1015.15 1015.55 1015.40 1015.79 1016.39 1016.91 1017.26 1016.47 1015.84 1015.87 1015.95 1016.41 1017.03 1017.16 1017.60 1017.71 1017.24 1016.91 1016.79 1016.84 1016.94 1017.33 1017.95 1018.29 1018.44 1018.25 1018.65 1018.08 1017.21 1016.62 1016.50
1017.86 1017.33 1016.84 1016.87 1017.01 1016.79 1016.51 1016.27 1016.05 1015.78 1015.23 1014.87 1014.65 1015.00 1015.23 1015.44 1015.77 1016.38 1016.73 1016.44 1015.38 1015.31 1015.27 1015.61 1016.06 1017.34 1017.75 1017.94 1017.88 1017.31 1017.47 1017.37 1017.45 1017.32 1017.19 1017.16 1017.19 1017.30 1017.34 1017.73 1017.48 1017.16 1016.63
1018.21 1017.50 1016.80 1016.47 1016.27 1015.97 1016.02 1015.88 1015.89 1015.88 1015.34 1014.93 1014.78 1014.77 1014.49 1014.87 1015.34 1015.86 1016.25 1016.35 1015.94 1015.60 1015.17 1015.05 1016.35 1017.26 1017.73 1017.96 1017.93 1017.87 1017.86 1017.64 1016.60 1016.35 1016.22 1016.16 1016.16 1016.11 1016.31 1016.80 1017.41 1017.55 1017.27
1018.69 1017.84 1017.21 1016.63 1016.04 1015.81 1015.60 1015.44 1015.56 1015.69 1015.18 1014.78 1014.37 1013.84 1013.94 1013.75 1014.00 1015.10 1015.65 1015.98 1016.07 1016.14 1015.29 1015.85 1016.36 1017.11 1017.57 1017.74 1017.76 1017.75 1017.71 1017.01 1016.32 1016.02 1015.81 1015.74 1015.88 1016.00 1016.70 1017.17 1017.38 1017.59 1017.77
1018.78 1018.29 1017.61 1016.92 1016.30 1015.47 1015.61 1015.57 1015.43 1015.60 1015.59 1015.08 1014.44 1014.03 1014.09 1013.64 1013.85 1014.18 1014.76 1015.39 1015.94 1016.02 1015.99 1016.00 1016.36 1016.76 1016.90 1016.92 1016.91 1017.28 1016.98 1016.33 1016.00 1015.74 1015.55 1015.47 1015.69 1016.05 1016.42 1016.33 1016.34 1016.45 1016.65
1018.77 1018.10 1017.83 1017.27 1016.56 1015.72 1014.99 1015.44 1015.59 1016.19 1016.30 1016.11 1015.64 1014.90 1014.21 1014.10 1013.71 1014.25 1014.35 1013.94 1014.21 1014.78 1015.12 1015.12 1015.59 1015.64 1015.56 1015.57 1015.60 1015.52 1015.47 1015.60 1015.76 1015.76 1015.46 1015.32 1015.24 1015.37 1015.44 1015.65 1015.91 1015.89 1015.80
1019.10 1018.25 1017.92 1017.62 1016.97 1016.10 1015.34 1015.10 1015.80 1015.94 1016.12 1016.02 1015.93 1015.60 1014.53 1014.58 1014.89 1015.04 1014.96 1015.13 1015.08 1015.02 1014.93 1014.21 1014.09 1014.11 1014.07 1014.08 1014.17 1014.29 1014.53 1015.01 1014.94 1014.96 1014.90 1014.85 1014.75 1014.73 1014.71 1014.77 1015.00 1015.27 1015.16
1019.68 1018.80 1018.18 1017.60 1016.94 1016.67 1015.85 1015.13 1015.17 1015.65 1015.77 1015.73 1015.48 1015.53 1015.14 1015.11 1015.21 1015.45 1015.48 1015.42 1015.42 1015.18 1014.61 1013.55 1013.14 1013.03 1013.12 1013.32 1013.49 1013.67 1013.83 1014.00 1014.37 1014.53 1014.40 1014.37 1014.37 1014.32 1014.38 1014.42 1014.22 1014.40 1014.61
1019.91 1019.25 1018.30 1017.86 1017.48 1016.76 1016.21 1015.64 1015.41 1015.15 1015.08 1015.21 1015.53 1015.41 1015.45 1015.33 1015.21 1015.19 1015.25 1015.26 1014.96 1014.87 1013.91 1013.13 1012.88 1012.67 1012.53 1012.79 1013.00 1013.16 1013.35 1013.65 1013.90 1014.09 1014.01 1013.93 1013.91 1013.78 1013.62 1013.70 1013.89 1014.07 1014.22
1019.62 1019.16 1018.74 1018.27 1017.86 1017.15 1016.73 1016.49 1016.12 1015.67 1014.97 1014.73 1015.03 1015.48 1015.88 1015.36 1015.19 1015.04 1015.05 1014.11 1013.04 1012.91 1012.62 1012.36 1012.76 1012.09 1012.74 1012.14 1012.63 1012.86 1013.18 1013.24 1013.36 1013.44 1013.51 1013.44 1013.44 1013.32 1013.19 1013.35 1013.47 1014.06 1014.36
1019.24 1019.47 1018.96 1018.62 1018.07 1017.66 1017.18 1016.71 1016.55 1016.15 1015.58 1015.13 1014.93 1015.49 1015.68 1015.59 1014.87 1014.69 1013.99 1012.90 1012.84 1012.36 1011.94 1012.19 1011.91 1011.65 1011.82 1011.67 1012.05 1012.48 1012.77 1013.00 1013.18 1013.28 1013.19 1012.99 1012.94 1012.93 1012.80 1012.79 1013.12 1013.30 1013.41
1019.34 1019.02 1019.22 1018.78 1018.44 1018.36 1018.03 1017.71 1017.45 1016.89 1016.51 1016.21 1015.83 1015.44 1016.08 1016.06 1015.27 1014.80 1014.14 1013.28 1012.59 1012.94 1012.39 1011.77 1011.51 1011.63 1011.13 1011.24 1011.57 1011.72 1011.89 1012.00 1012.10 1012.21 1012.19 1012.29 1012.41 1012.47 1012.55 1012.50 1012.68 1012.87 1013.06
1018.91 1018.71 1018.89 1018.85 1018.72 1018.42 1018.14 1017.81 1017.46 1017.21 1016.93 1016.61 1016.16 1015.34 1015.43 1014.69 1014.10 1014.20 1014.27 1013.74 1013.14 1012.50 1012.30 1011.71 1011.49 1011.07 1010.86 1010.75 1010.78 1010.87 1011.09 1011.18 1011.35 1011.44 1011.49 1011.54 1011.62 1011.90 1011.99 1011.98 1012.20 1012.41 1012.61
1019.30 1018.91 1018.64 1018.39 1018.37 1018.20 1017.90 1017.61 1017.52 1017.22 1016.97 1016.71 1016.27 1015.76 1015.12 1014.85 1014.57 1013.79 1013.62 1013.45 1013.16 1012.76 1012.59 1011.78 1010.92 1011.15 1010.61 1010.51 1010.30 1010.44 1010.21 1010.37 1010.47 1010.76 1010.86 1010.83 1011.00 1011.13 1011.29 1011.40 1011.56 1011.73 1011.94
1018.36 1018.42 1018.33 1018.03 1017.86 1017.70 1017.51 1017.60 1017.50 1017.38 1017.11 1016.66 1016.28 1015.97 1015.68 1015.52 1015.01 1014.62 1014.11 1013.28 1013.04 1012.70 1012.40 1011.94 1011.64 1010.99 1010.72 1010.24 1010.10 1010.19 1010.19 1010.20 1010.05 1010.21 1010.31 1010.49 1010.35 1010.50 1010.82 1010.73 1010.85 1010.99 1011.21
1018.16 1017.92 1017.65 1017.37 1017.25 1017.18 1016.99 1016.86 1017.14 1017.17 1017.04 1016.83 1016.65 1016.43 1016.16 1015.82 1015.45 1015.07 1014.66 1014.04 1013.51 1013.03 1012.57 1011.73 1011.82 1011.51 1011.04 1010.59 1010.25 1009.84 1010.06 1010.45 1010.76 1011.02 1010.29 1009.98 1010.14 1009.91 1009.90 1010.01 1010.10 1010.33 1010.65
1017.83 1017.45 1017.51 1016.94 1016.40 1016.38 1016.35 1015.93 1015.91 1016.12 1016.38 1016.77 1016.79 1016.58 1016.30 1015.94 1015.50 1015.20 1014.83 1014.45 1014.04 1013.65 1013.25 1012.53 1012.29 1011.82 1011.05 1010.80 1010.97 1011.46 1011.25 1011.36 1011.15 1011.41 1010.93 1010.20 1009.80 1009.69 1009.61 1009.78 1009.84 1009.97 1010.06
Wind_Speed
6 7 6 9 7 7 8 9 9 6 6 8 7 4 6 7 5 7 8 6 6 4 5 5 4 2 3 5 3 3 2 1 5 2 3 4 9 13 9 13 14 13 11
8 8 4 8 11 9 6 9 11 11 5 8 8 7 6 6 4 7 6 6 6 7 7 8 8 5 5 5 3 4 3 5 5 6 2 1 9 12 10 9 9 9 12
10 7 6 7 5 13 9 10 10 10 7 7 7 8 4 4 2 6 4 4 5 6 7 9 10 9 8 8 8 7 7 7 5 6 1 1 7 9 11 9 8 10 10
11 8 7 8 4 11 10 10 7 13 7 9 7 7 2 4 3 7 4 5 3 5 6 7 10 11 9 8 8 9 9 9 10 4 4 4 8 8 8 9 8 8 9
15 11 7 6 9 11 8 9 9 10 7 10 6 5 5 5 6 4 4 5 6 4 5 6 9 8 9 11 5 6 5 13 10 3 6 8 8 8 8 8 5 7 5
11 15 7 7 7 12 9 11 10 11 9 5 7 5 6 6 9 1 5 2 5 5 5 5 6 4 8 10 9 12 10 7 4 5 5 5 6 4 5 7 6 8 6
12 11 12 10 10 13 11 10 9 9 5 6 6 7 7 6 9 6 6 2 5 3 3 4 5 8 4 6 7 7 9 7 7 6 5 4 6 4 5 3 3 2 2
15 8 10 9 7 10 12 9 11 10 9 8 7 7 7 5 9 7 6 8 2 3 4 2 4 5 6 6 3 5 6 6 5 4 4 4 4 4 3 3 3 2 2
15 15 9 7 6 11 12 10 9 8 8 8 7 8 8 8 9 9 7 7 7 4 3 2 2 3 4 5 3 1 4 5 6 6 7 7 7 7 6 4 6 5 5
14 14 11 11 6 8 9 11 8 8 8 9 7 8 7 9 12 12 10 9 6 6 6 4 5 3 6 3 5 1 2 2 3 6 6 3 4 4 3 5 2 4 1
15 14 12 8 4 7 8 7 7 10 11 9 9 6 9 8 8 12 11 9 8 8 7 7 7 8 6 3 7 2 5 4 4 5 5 6 6 6 6 7 5 6 4
16 15 12 10 9 8 7 3 2 9 11 10 9 8 7 10 10 12 12 13 6 7 6 4 10 9 8 6 6 7 2 5 4 4 4 5 5 5 5 5 5 6 5
16 15 13 13 10 9 9 6 4 6 8 7 9 8 8 4 8 11 11 12 10 8 7 8 14 9 7 7 7 4 5 6 4 5 5 4 3 1 3 3 4 5 7
13 14 13 12 11 9 7 5 5 6 6 8 8 9 7 5 5 7 9 7 7 9 7 6 5 4 7 2 7 8 8 7 6 5 5 4 3 4 6 6 6 7 6
13 11 10 9 11 10 7 3 3 1 2 5 8 9 7 8 4 6 6 1 5 8 9 8 8 8 8 8 8 8 7 7 8 8 7 6 6 7 7 6 6 6 6
13 10 8 8 9 10 8 5 5 3 2 6 8 6 7 2 6 6 7 6 4 7 7 8 8 8 9 8 8 7 7 7 8 8 8 8 7 7 7 7 7 7 7
13 11 10 9 6 9 10 8 7 5 4 2 10 10 6 11 5 3 2 3 4 6 7 8 7 7 7 6 7 6 7 6 7 9 9 9 8 8 6 8 7 7 7
10 10 11 9 9 6 9 10 9 6 5 3 3 9 13 5 3 3 5 7 6 5 9 9 8 6 7 6 6 6 6 6 7 8 8 9 8 8 8 7 7 7 7
7 9 11 8 8 9 7 7 8 8 7 4 4 5 6 5 3 5 8 9 8 7 10 9 8 4 6 6 6 6 6 7 6 7 8 8 8 8 8 7 6 1 3
8 5 8 9 8 9 9 7 7 7 8 7 7 5 5 8 6 4 7 7 7 8 5 6 8 7 8 7 6 6 6 8 8 8 8 8 8 8 8 7 6 6 6
6 7 8 8 8 8 7 7 7 7 7 7 7 5 3 4 6 6 8 4 7 5 9 8 7 8 8 8 8 7 8 8 8 8 8 8 8 8 8 7 6 6 6
8 7 7 6 6 6 7 6 6 6 7 7 7 7 6 8 4 3 5 5 7 6 6 10 7 8 7 8 8 8 8 9 9 8 8 8 8 9 9 8 8 7 7
7 8 7 5 6 5 5 7 7 7 7 6 6 5 7 6 7 7 6 5 6 6 6 10 8 7 9 6 8 8 9 9 8 7 9 8 8 9 9 9 9 9 8
5 6 6 7 5 5 5 5 6 7 7 7 7 7 7 7 7 8 8 8 5 7 6 7 10 10 9 8 8 9 8 9 7 8 12 9 10 9 9 9 9 10 9
8 7 9 3 6 5 5 3 3 6 6 7 6 6 7 7 7 7 8 8 8 7 10 8 7 12 13 12 15 15 2 5 4 8 9 11 14 14 11 10 10 9 10
7 7 7 8 6 3 6 5 5 2 3 4 5 6 6 6 6 6 6 6 7 7 8 8 8 13 14 10 9 10 7 7 6 4 8 10 11 11 11 12 16 11 13
Wind_Direction
270 265 270 285 273 251 265 280 291 253 253 273 291 302 287 284 304 318 302 337 332 352 344 13 50 53 0 21 61 142 87 123 120 62 12 281 143 125 127 125 138 133 138
259 257 255 279 283 273 240 276 275 282 257 259 277 286 288 294 340 298 328 1 9 14 7 14 32 74 121 127 66 99 104 106 90 105 30 7 99 114 115 116 141 147 150
300 269 241 258 313 290 268 267 280 278 271 245 275 265 305 297 278 297 321 354 19 26 18 21 32 47 68 102 132 136 122 117 85 96 63 140 123 127 131 147 151 118 149
306 279 272 281 283 282 263 269 264 272 267 258 250 255 241 218 247 283 5 349 345 45 27 32 35 37 40 78 115 132 135 115 102 108 163 124 125 147 138 140 146 166 153
322 292 263 249 277 280 262 256 276 273 253 252 251 224 241 233 211 322 33 337 336 359 64 47 49 48 44 36 55 59 162 153 135 193 164 186 138 164 165 159 170 155 138
328 313 275 281 264 285 265 253 256 263 250 262 249 218 233 246 106 122 292 303 355 325 25 2 88 134 89 64 57 47 29 20 79 167 130 111 98 131 156 133 174 161 178
352 322 292 272 264 268 273 254 263 274 254 263 247 230 236 217 155 175 231 288 295 311 329 327 324 88 351 94 118 120 76 58 31 8 87 106 154 175 143 227 131 187 326
336 342 324 279 264 264 280 255 253 253 258 255 232 228 216 218 165 183 225 252 293 229 274 332 2 10 47 4 70 96 101 101 54 55 82 93 114 108 107 61 136 164 183
339 344 345 282 285 280 289 281 261 252 242 258 248 219 206 217 175 190 212 239 210 267 244 113 253 225 95 325 349 130 131 120 112 77 59 52 43 21 4 213 180 207 186
336 338 359 341 284 262 299 306 295 256 253 258 220 246 229 213 184 181 203 255 222 234 197 170 195 301 135 301 325 46 193 114 261 150 167 174 203 173 286 283 225 242 213
332 330 343 342 313 285 269 258 297 306 262 255 270 239 245 219 207 183 195 247 261 208 229 189 142 144 167 226 301 20 34 332 154 235 215 211 192 193 206 210 254 296 278
329 325 333 342 334 324 285 269 280 308 275 259 244 248 223 227 193 183 190 223 285 275 280 248 106 144 171 195 241 111 108 279 241 216 206 196 211 210 182 193 217 249 289
332 328 326 326 348 346 329 294 269 270 284 261 247 219 243 225 181 162 188 210 229 240 271 84 114 149 174 204 228 183 206 242 262 236 230 229 235 108 79 173 196 217 240
328 327 328 322 332 339 340 341 326 342 349 310 262 263 237 239 271 186 194 184 211 211 205 187 167 219 240 327 165 197 236 250 253 244 242 233 195 192 213 227 227 199 227
329 320 330 326 328 320 324 351 352 60 12 357 313 296 246 243 213 37 34 257 173 195 194 217 197 211 220 208 218 231 228 219 223 239 247 245 234 223 230 220 230 256 255
331 335 340 323 323 313 314 330 166 173 323 347 304 255 279 243 20 19 20 11 44 135 211 228 222 227 229 231 229 226 221 221 246 236 237 240 247 253 246 236 225 249 262
335 336 329 315 314 329 315 319 320 189 195 348 355 321 241 290 316 261 253 209 201 166 235 246 236 230 226 239 242 242 247 245 229 242 240 238 241 248 222 261 256 242 254
354 322 340 339 324 306 311 330 324 318 347 28 4 24 6 317 281 261 213 188 188 208 256 235 248 237 243 234 241 243 245 243 227 245 243 243 241 250 242 230 252 262 265
360 355 343 349 344 334 316 351 349 347 339 35 57 22 6 344 221 189 201 250 235 230 219 219 274 243 277 234 236 252 255 255 252 238 231 232 235 244 238 253 257 275 320
351 50 343 346 356 351 345 355 356 351 346 348 360 43 359 350 339 302 219 238 259 276 242 301 227 230 239 236 229 233 227 213 227 223 239 244 239 235 245 241 240 265 213
340 348 15 355 358 354 348 348 345 339 346 339 330 341 349 300 305 319 305 282 255 230 281 260 239 259 250 232 232 227 222 228 222 229 230 223 229 233 235 248 249 243 245
352 1 4 359 344 348 347 340 345 345 338 330 324 314 228 266 258 263 283 314 280 265 252 262 260 268 254 260 237 232 235 235 230 232 235 239 230 224 240 238 241 242 248
3 1 342 13 345 350 335 354 351 344 340 323 320 322 333 334 323 312 306 266 283 304 300 280 248 251 272 253 245 255 253 240 243 234 239 239 236 234 233 239 242 239 240
355 5 354 350 2 337 1 354 354 342 333 333 336 335 334 330 320 320 306 287 281 288 268 282 281 273 289 271 254 234 234 249 268 253 249 250 244 211 241 240 236 243 248
326 338 335 360 337 357 345 2 353 342 343 338 336 330 325 327 322 328 322 331 335 328 303 279 273 289 285 274 272 263 71 94 296 329 288 248 252 250 246 240 248 248 240
305 311 315 322 319 330 315 332 323 357 330 320 317 320 317 311 318 326 329 329 329 318 314 315 331 329 270 274 351 10 18 11 328 311 278 264 260 252 251 257 258 262 257